Weather History for KY19 - October, 2013

Change the Weather History Date:

Friday, October 11, 2013

  Actual Average (KBIS) Record (KBIS)
Temperature  
Mean Temperature 52 °F 47 °F  
Max Temperature 62 °F 60 °F 87 °F (1934)
Min Temperature 42 °F 34 °F 16 °F (1935)
Degree Days  
Heating Degree Days 13 18  
Month to date heating degree days 173  
Since 1 July heating degree days 459  
Cooling Degree Days 0 0  
Month to date cooling degree days 0  
Year to date cooling degree days 519  
Growing Degree Days 2 (Base 50)    
Moisture  
Dew Point 51 °F    
Average Humidity 92    
Maximum Humidity 100    
Minimum Humidity 77    
Precipitation  
Precipitation 0.46 in 0.04 in 1.24 in (1947)
Month to date precipitation 0.47  
Year to date precipitation 15.87  
Snow  
Snow 0.00 in 0.10 in 1.60 in (1909)
Month to date snowfall 0.3  
Since 1 July snowfall 0.5  
Since 1 September snowfall 0.5  
Snow Depth -    
Sea Level Pressure  
Sea Level Pressure 29.47 in    
Wind  
Wind Speed 13 mph (NNE)    
Max Wind Speed 38 mph    
Max Gust Speed 55 mph    
Visibility 8 miles    
Events Fog , Rain , Thunderstorm    
T = Trace of Precipitation, MM = Missing Value Source: NWS Daily Summary

Daily Weather History Graph

Daily Weather History Graph

Search for Another Location

Airport or City:

Trip Planner

Search our weather history database for the weather conditions in past years. The results will help you decide how hot, cold, wet, or windy it might be!

Date:

Astronomy

Oct. 11, 2013 Rise Set
Actual Time 7:56 AM CDT 7:03 PM CDT
Civil Twilight 7:25 AM CDT 7:33 PM CDT
Nautical Twilight 6:50 AM CDT 8:08 PM CDT
Astronomical Twilight 6:15 AM CDT 8:43 PM CDT
Moon 2:51 PM CDT (10/11) No Moon Set
Length of Visible Light 12h 08m
Length of Day
11h 07m
Waxing Crescent, 47% of the Moon is Illuminated
Oct 11
Waxing Crescent
Oct 11
First Quarter
Oct 18
Full
Oct 26
Last Quarter
Nov 3
New

Hourly Weather History & Observations

Time (CDT) Temp. Windchill Dew Point Humidity Pressure Visibility Wind Dir Wind Speed Gust Speed Precip Events Conditions
12:15 AM 55.4 °F - 53.6 °F 94% 29.66 in 5.0 mi East 4.6 mph - N/A Rain Light Rain
12:35 AM 55.4 °F - 53.6 °F 94% 29.64 in 7.0 mi East 4.6 mph - 0.01 in Rain Light Rain
12:55 AM 53.6 °F - 53.6 °F 100% 29.61 in 4.0 mi NE 6.9 mph - 0.03 in Rain Light Rain
1:15 AM 53.6 °F - 53.6 °F 100% 29.59 in 10.0 mi NE 8.1 mph - N/A Rain Light Rain
1:55 AM 55.4 °F - 53.6 °F 94% 29.58 in 4.0 mi NE 6.9 mph - 0.06 in Rain , Thunderstorm Light Thunderstorms and Rain
2:15 AM 55.4 °F - 53.6 °F 94% 29.59 in 2.0 mi North 4.6 mph - 0.01 in Rain , Thunderstorm Light Rain
2:35 AM 55.4 °F - 53.6 °F 94% 29.60 in 2.5 mi NE 5.8 mph - 0.04 in Rain Light Rain
2:55 AM 55.4 °F - 53.6 °F 94% 29.57 in 0.5 mi NE 9.2 mph - 0.05 in Rain Light Rain
3:15 AM 55.4 °F - 55.4 °F 100% 29.58 in 0.2 mi East 9.2 mph - N/A Fog Fog
3:35 AM 55.4 °F - 55.4 °F 100% 29.57 in 5.0 mi ENE 9.2 mph - 0.04 in Rain Light Rain
3:55 AM 55.4 °F - 55.4 °F 100% 29.54 in 7.0 mi NNE 6.9 mph - 0.04 in   Overcast
4:15 AM 55.4 °F - 55.4 °F 100% 29.55 in 9.0 mi North 6.9 mph - N/A   Overcast
4:35 AM 55.4 °F - 55.4 °F 100% 29.53 in 6.0 mi North 10.4 mph - N/A   Overcast
4:55 AM 55.4 °F - 55.4 °F 100% 29.54 in 10.0 mi ENE 9.2 mph - N/A   Overcast
5:15 AM 57.2 °F - 55.4 °F 94% 29.51 in 10.0 mi NE 11.5 mph - N/A   Overcast
5:35 AM 57.2 °F - 55.4 °F 94% 29.50 in 10.0 mi NE 10.4 mph - N/A   Mostly Cloudy
5:55 AM 57.2 °F - 55.4 °F 94% 29.49 in 10.0 mi NE 9.2 mph - N/A   Mostly Cloudy
6:15 AM 57.2 °F - 55.4 °F 94% 29.49 in 10.0 mi ENE 6.9 mph - N/A   Scattered Clouds
6:35 AM 57.2 °F - 55.4 °F 94% 29.50 in 10.0 mi ENE 11.5 mph - N/A   Mostly Cloudy
6:55 AM 55.4 °F - 55.4 °F 100% 29.50 in 10.0 mi ENE 10.4 mph - N/A   Mostly Cloudy
7:15 AM 57.2 °F - 55.4 °F 94% 29.48 in 10.0 mi NE 12.7 mph - N/A   Mostly Cloudy
7:35 AM 57.2 °F - 55.4 °F 94% 29.48 in 10.0 mi ENE 10.4 mph - N/A   Overcast
7:55 AM 57.2 °F - 55.4 °F 94% 29.48 in 10.0 mi ENE 8.1 mph - N/A   Overcast
8:15 AM 55.4 °F - 55.4 °F 100% 29.47 in 10.0 mi East 8.1 mph - N/A   Overcast
8:35 AM 55.4 °F - 55.4 °F 100% 29.47 in 2.5 mi East 8.1 mph - 0.05 in Rain Light Rain
8:55 AM 55.4 °F - 55.4 °F 100% 29.46 in 7.0 mi ENE 9.2 mph - 0.06 in Rain Light Rain
10:55 AM 59.0 °F - 57.2 °F 94% 29.44 in 10.0 mi ESE 15.0 mph - N/A   Unknown
11:15 AM 59.0 °F - 57.2 °F 94% 29.42 in 10.0 mi ESE 17.3 mph 23.0 mph N/A   Mostly Cloudy
11:35 AM 60.8 °F - 57.2 °F 88% 29.41 in 10.0 mi ESE 16.1 mph 20.7 mph N/A   Mostly Cloudy
11:55 AM 60.8 °F - 57.2 °F 88% 29.40 in 10.0 mi ESE 15.0 mph - N/A   Overcast
12:15 PM 60.8 °F - 57.2 °F 88% 29.39 in 10.0 mi ESE 13.8 mph 18.4 mph N/A   Overcast
12:35 PM 62.6 °F - 57.2 °F 82% 29.38 in 10.0 mi SE 12.7 mph - N/A   Mostly Cloudy
12:55 PM 60.8 °F - 55.4 °F 82% 29.37 in 10.0 mi ESE 12.7 mph 17.3 mph N/A   Scattered Clouds
1:15 PM 62.6 °F - 55.4 °F 77% 29.36 in 10.0 mi ESE 9.2 mph 17.3 mph N/A   Scattered Clouds
1:35 PM 62.6 °F - 55.4 °F 77% 29.35 in 10.0 mi SE 9.2 mph - N/A   Partly Cloudy
1:55 PM 62.6 °F - 55.4 °F 77% 29.34 in 10.0 mi ESE 5.8 mph - N/A   Mostly Cloudy
2:15 PM 62.6 °F - 55.4 °F 77% 29.33 in 10.0 mi East 9.2 mph - N/A   Mostly Cloudy
2:35 PM 60.8 °F - 55.4 °F 82% 29.33 in 10.0 mi ESE 17.3 mph 25.3 mph N/A Thunderstorm Overcast
2:55 PM 53.6 °F - 51.8 °F 94% 29.35 in 3.0 mi South 10.4 mph - N/A Thunderstorm Mostly Cloudy
3:15 PM 51.8 °F - 50.0 °F 94% 29.36 in 5.0 mi West 15.0 mph - N/A Rain , Thunderstorm Light Rain
3:35 PM 50.0 °F - 48.2 °F 94% 29.36 in 3.0 mi West 16.1 mph 25.3 mph 0.02 in Rain Light Rain
3:55 PM 50.0 °F - 48.2 °F 94% 29.37 in 2.5 mi WNW 19.6 mph - 0.05 in Rain Light Rain
4:15 PM 50.0 °F - 48.2 °F 94% 29.36 in 3.0 mi WNW 18.4 mph 27.6 mph 0.02 in Rain Rain
4:35 PM 48.2 °F - 48.2 °F 100% 29.35 in 1.8 mi NW 21.9 mph 27.6 mph 0.09 in Rain Rain
4:55 PM 48.2 °F - 46.4 °F 93% 29.36 in 5.0 mi NW 20.7 mph 31.1 mph 0.16 in Rain Light Rain
5:15 PM 48.2 °F - 46.4 °F 93% 29.37 in 8.0 mi NW 24.2 mph 33.4 mph N/A Rain Light Rain
5:35 PM 48.2 °F - 46.4 °F 93% 29.37 in 5.0 mi WNW 24.2 mph 33.4 mph 0.01 in Rain Light Rain
5:55 PM 48.2 °F - 46.4 °F 93% 29.37 in 5.0 mi WNW 27.6 mph 35.7 mph 0.01 in Rain Light Rain
6:15 PM 46.4 °F 37.0 °F 44.6 °F 93% 29.38 in 5.0 mi WNW 31.1 mph 46.0 mph N/A Rain Light Rain
6:35 PM 46.4 °F 36.7 °F 44.6 °F 93% 29.39 in 8.0 mi WNW 33.4 mph 41.4 mph N/A Rain Light Rain
6:55 PM 46.4 °F 36.4 °F 44.6 °F 93% 29.41 in 10.0 mi WNW 35.7 mph 43.7 mph N/A   Overcast
7:15 PM 46.4 °F 36.9 °F 44.6 °F 93% 29.42 in 10.0 mi WNW 32.2 mph 46.0 mph N/A   Overcast
7:35 PM 46.4 °F 36.5 °F 44.6 °F 93% 29.43 in 10.0 mi WNW 34.5 mph 48.3 mph N/A   Overcast
7:55 PM 46.4 °F 36.4 °F 42.8 °F 87% 29.43 in 7.0 mi WNW 35.7 mph 55.2 mph N/A Rain Light Rain
8:15 PM 44.6 °F 33.6 °F 42.8 °F 93% 29.44 in 10.0 mi WNW 38.0 mph 51.8 mph N/A   Overcast
8:35 PM 44.6 °F 33.9 °F 41.0 °F 87% 29.46 in 10.0 mi WNW 35.7 mph 50.6 mph N/A   Overcast
8:55 PM 44.6 °F 33.6 °F 41.0 °F 87% 29.48 in 10.0 mi WNW 38.0 mph 51.8 mph N/A   Overcast
9:15 PM 44.6 °F 34.1 °F 41.0 °F 87% 29.49 in 10.0 mi WNW 34.5 mph 47.2 mph N/A   Overcast
9:35 PM 44.6 °F 33.9 °F 41.0 °F 87% 29.51 in 10.0 mi WNW 35.7 mph 48.3 mph N/A   Overcast
9:55 PM 44.6 °F 34.1 °F 41.0 °F 87% 29.51 in 8.0 mi WNW 34.5 mph 48.3 mph N/A   Mostly Cloudy
10:15 PM 44.6 °F 34.4 °F 41.0 °F 87% 29.52 in 10.0 mi WNW 32.2 mph 49.5 mph N/A   Mostly Cloudy
10:35 PM 44.6 °F 33.6 °F 41.0 °F 87% 29.53 in 10.0 mi WNW 38.0 mph 47.2 mph N/A Rain Light Rain
10:55 PM 44.6 °F 34.2 °F 41.0 °F 87% 29.57 in 7.0 mi WNW 33.4 mph 42.6 mph N/A Rain Light Rain
11:15 PM 42.8 °F 31.8 °F 41.0 °F 93% 29.59 in 6.0 mi WNW 33.4 mph 43.7 mph N/A Rain Light Rain
11:35 PM 42.8 °F 31.3 °F 41.0 °F 93% 29.59 in 4.0 mi WNW 36.8 mph 47.2 mph N/A Rain Light Rain
11:55 PM 42.8 °F 31.8 °F 41.0 °F 93% 29.61 in 4.0 mi WNW 33.4 mph 47.2 mph N/A Rain Light Rain